Year,Month,Day,Hour,Minute,Value (Times are PST for temperature in C)
2013,04,04,00,00,10.30
2013,04,04,00,01,10.30
2013,04,04,00,02,10.30
2013,04,04,00,03,10.30
2013,04,04,00,04,10.30
2013,04,04,00,05,10.30
2013,04,04,00,06,10.30
2013,04,04,00,07,10.30
2013,04,04,00,08,10.30
2013,04,04,00,09,10.30
2013,04,04,00,10,10.30
2013,04,04,00,11,10.30
2013,04,04,00,12,10.30
2013,04,04,00,13,10.30
2013,04,04,00,14,10.30
2013,04,04,00,15,10.30
2013,04,04,00,16,10.30
2013,04,04,00,17,10.30
2013,04,04,00,18,10.30
2013,04,04,00,19,10.30
2013,04,04,00,20,10.20
2013,04,04,00,21,10.20
2013,04,04,00,22,10.20
2013,04,04,00,23,10.20
2013,04,04,00,24,10.20
2013,04,04,00,25,10.20
2013,04,04,00,26,10.20
2013,04,04,00,27,10.20
2013,04,04,00,28,10.20
2013,04,04,00,29,10.20
2013,04,04,00,30,10.10
2013,04,04,00,31,10.10
2013,04,04,00,32,10.10
2013,04,04,00,33,10.10
2013,04,04,00,34,10.10
2013,04,04,00,35,10.10
2013,04,04,00,36,10.10
2013,04,04,00,37,10.10
2013,04,04,00,38,10.10
2013,04,04,00,39,10.10
2013,04,04,00,40,10.10
2013,04,04,00,41,10.10
2013,04,04,00,42,10.10
2013,04,04,00,43,10.10
2013,04,04,00,44,10.00
2013,04,04,00,45,10.00
2013,04,04,00,46,10.00
2013,04,04,00,47,10.00
2013,04,04,00,48,10.00
2013,04,04,00,49,10.00
2013,04,04,00,50,10.00
2013,04,04,00,51,10.00
2013,04,04,00,52,10.00
2013,04,04,00,53,10.10
2013,04,04,00,54,10.10
2013,04,04,00,55,10.10
2013,04,04,00,56,10.10
2013,04,04,00,57,10.10
2013,04,04,00,58,10.10
2013,04,04,00,59,10.10
2013,04,04,01,00,10.10
2013,04,04,01,01,10.10
2013,04,04,01,02,10.10
2013,04,04,01,03,10.10
2013,04,04,01,04,10.10
2013,04,04,01,05,10.10
2013,04,04,01,06,10.10
2013,04,04,01,07,10.10
2013,04,04,01,08,10.10
2013,04,04,01,09,10.10
2013,04,04,01,10,10.20
2013,04,04,01,11,10.20
2013,04,04,01,12,10.20
2013,04,04,01,13,10.20
2013,04,04,01,14,10.20
2013,04,04,01,15,10.20
2013,04,04,01,16,10.20
2013,04,04,01,17,10.20
2013,04,04,01,18,10.20
2013,04,04,01,19,10.20
2013,04,04,01,20,10.20
2013,04,04,01,21,10.20
2013,04,04,01,22,10.20
2013,04,04,01,23,10.20
2013,04,04,01,24,10.20
2013,04,04,01,25,10.20
2013,04,04,01,26,10.30
2013,04,04,01,27,10.30
2013,04,04,01,28,10.30
2013,04,04,01,29,10.30
2013,04,04,01,30,10.30
2013,04,04,01,31,10.30
2013,04,04,01,32,10.30
2013,04,04,01,33,10.30
2013,04,04,01,34,10.30
2013,04,04,01,35,10.30
2013,04,04,01,36,10.30
2013,04,04,01,37,10.30
2013,04,04,01,38,10.30
2013,04,04,01,39,10.30
2013,04,04,01,40,10.30
2013,04,04,01,41,10.20
2013,04,04,01,42,10.20
2013,04,04,01,43,10.20
2013,04,04,01,44,10.20
2013,04,04,01,45,10.20
2013,04,04,01,46,10.20
2013,04,04,01,47,10.20
2013,04,04,01,48,10.20
2013,04,04,01,49,10.20
2013,04,04,01,50,10.20
2013,04,04,01,51,10.20
2013,04,04,01,52,10.20
2013,04,04,01,53,10.20
2013,04,04,01,54,10.20
2013,04,04,01,55,10.20
2013,04,04,01,56,10.20
2013,04,04,01,57,10.20
2013,04,04,01,58,10.20
2013,04,04,01,59,10.10
2013,04,04,02,00,10.10
2013,04,04,02,01,10.10
2013,04,04,02,02,10.10
2013,04,04,02,03,10.10
2013,04,04,02,04,10.10
2013,04,04,02,05,10.10
2013,04,04,02,06,10.10
2013,04,04,02,07,10.10
2013,04,04,02,08,10.10
2013,04,04,02,09,10.10
2013,04,04,02,10,10.10
2013,04,04,02,11,10.10
2013,04,04,02,12,10.10
2013,04,04,02,13,10.10
2013,04,04,02,14,10.10
2013,04,04,02,15,10.10
2013,04,04,02,16,10.10
2013,04,04,02,17,10.10
2013,04,04,02,18,10.10
2013,04,04,02,19,10.10
2013,04,04,02,20,10.10
2013,04,04,02,21,10.10
2013,04,04,02,22,10.10
2013,04,04,02,23,10.10
2013,04,04,02,24,10.10
2013,04,04,02,25,10.10
2013,04,04,02,26,10.10
2013,04,04,02,27,10.00
2013,04,04,02,28,10.00
2013,04,04,02,29,10.00
2013,04,04,02,30,10.00
2013,04,04,02,31,10.00
2013,04,04,02,32,10.00
2013,04,04,02,33,10.00
2013,04,04,02,34,10.00
2013,04,04,02,35,10.00
2013,04,04,02,36,10.00
2013,04,04,02,37,10.00
2013,04,04,02,38,10.00
2013,04,04,02,39,10.00
2013,04,04,02,40,10.00
2013,04,04,02,41,9.90
2013,04,04,02,42,9.90
2013,04,04,02,43,9.90
2013,04,04,02,44,9.90
2013,04,04,02,45,9.90
2013,04,04,02,46,9.90
2013,04,04,02,47,9.90
2013,04,04,02,48,9.90
2013,04,04,02,49,9.90
2013,04,04,02,50,9.90
2013,04,04,02,51,9.90
2013,04,04,02,52,9.90
2013,04,04,02,53,9.80
2013,04,04,02,54,9.80
2013,04,04,02,55,9.80
2013,04,04,02,56,9.80
2013,04,04,02,57,9.80
2013,04,04,02,58,9.80
2013,04,04,02,59,9.80
2013,04,04,03,00,9.80
2013,04,04,03,01,9.80
2013,04,04,03,02,9.80
2013,04,04,03,03,9.80
2013,04,04,03,04,9.80
2013,04,04,03,05,9.80
2013,04,04,03,06,9.80
2013,04,04,03,07,9.80
2013,04,04,03,08,9.90
2013,04,04,03,09,9.80
2013,04,04,03,10,9.80
2013,04,04,03,11,9.80
2013,04,04,03,12,9.80
2013,04,04,03,13,9.80
2013,04,04,03,14,9.80
2013,04,04,03,15,9.80
2013,04,04,03,16,9.80
2013,04,04,03,17,9.80
2013,04,04,03,18,9.80
2013,04,04,03,19,9.80
2013,04,04,03,20,9.80
2013,04,04,03,21,9.80
2013,04,04,03,22,9.80
2013,04,04,03,23,9.80
2013,04,04,03,24,9.80
2013,04,04,03,25,9.80
2013,04,04,03,26,9.80
2013,04,04,03,27,9.80
2013,04,04,03,28,9.80
2013,04,04,03,29,9.80
2013,04,04,03,30,9.80
2013,04,04,03,31,9.80
2013,04,04,03,32,9.80
2013,04,04,03,33,9.70
2013,04,04,03,34,9.70
2013,04,04,03,35,9.70
2013,04,04,03,36,9.70
2013,04,04,03,37,9.70
2013,04,04,03,38,9.70
2013,04,04,03,39,9.70
2013,04,04,03,40,9.70
2013,04,04,03,41,9.70
2013,04,04,03,42,9.70
2013,04,04,03,43,9.70
2013,04,04,03,44,9.70
2013,04,04,03,45,9.80
2013,04,04,03,46,9.80
2013,04,04,03,47,9.80
2013,04,04,03,48,9.80
2013,04,04,03,49,9.80
2013,04,04,03,50,9.80
2013,04,04,03,51,9.80
2013,04,04,03,52,9.90
2013,04,04,03,53,9.90
2013,04,04,03,54,9.90
2013,04,04,03,55,9.90
2013,04,04,03,56,9.90
2013,04,04,03,57,9.90
2013,04,04,03,58,9.90
2013,04,04,03,59,9.90
2013,04,04,04,00,9.90
2013,04,04,04,01,9.90
2013,04,04,04,02,9.90
2013,04,04,04,03,9.90
2013,04,04,04,04,9.90
2013,04,04,04,05,9.90
2013,04,04,04,06,9.90
2013,04,04,04,07,9.90
2013,04,04,04,08,9.90
2013,04,04,04,09,9.90
2013,04,04,04,10,9.90
2013,04,04,04,11,9.90
2013,04,04,04,12,9.90
2013,04,04,04,13,9.90
2013,04,04,04,14,9.90
2013,04,04,04,15,10.00
2013,04,04,04,16,10.00
2013,04,04,04,17,10.00
2013,04,04,04,18,10.00
2013,04,04,04,19,10.00
2013,04,04,04,20,10.00
2013,04,04,04,21,10.00
2013,04,04,04,22,10.00
2013,04,04,04,23,10.00
2013,04,04,04,24,10.00
2013,04,04,04,25,10.00
2013,04,04,04,26,9.90
2013,04,04,04,27,9.90
2013,04,04,04,28,9.90
2013,04,04,04,29,9.90
2013,04,04,04,30,9.90
2013,04,04,04,31,9.90
2013,04,04,04,32,9.90
2013,04,04,04,33,9.90
2013,04,04,04,34,9.80
2013,04,04,04,35,9.80
2013,04,04,04,36,9.80
2013,04,04,04,37,9.80
2013,04,04,04,38,9.80
2013,04,04,04,39,9.80
2013,04,04,04,40,9.80
2013,04,04,04,41,9.70
2013,04,04,04,42,9.70
2013,04,04,04,43,9.70
2013,04,04,04,44,9.70
2013,04,04,04,45,9.70
2013,04,04,04,46,9.70
2013,04,04,04,47,9.70
2013,04,04,04,48,9.70
2013,04,04,04,49,9.70
2013,04,04,04,50,9.60
2013,04,04,04,51,9.60
2013,04,04,04,52,9.60
2013,04,04,04,53,9.60
2013,04,04,04,54,9.60
2013,04,04,04,55,9.60
2013,04,04,04,56,9.60
2013,04,04,04,57,9.60
2013,04,04,04,58,9.60
2013,04,04,04,59,9.60
2013,04,04,05,00,9.60
2013,04,04,05,01,9.60
2013,04,04,05,02,9.60
2013,04,04,05,03,9.60
2013,04,04,05,04,9.60
2013,04,04,05,05,9.60
2013,04,04,05,06,9.60
2013,04,04,05,07,9.60
2013,04,04,05,08,9.60
2013,04,04,05,09,9.60
2013,04,04,05,10,9.60
2013,04,04,05,11,9.60
2013,04,04,05,12,9.60
2013,04,04,05,13,9.60
2013,04,04,05,14,9.60
2013,04,04,05,15,9.60
2013,04,04,05,16,9.60
2013,04,04,05,17,9.60
2013,04,04,05,18,9.60
2013,04,04,05,19,9.60
2013,04,04,05,20,9.60
2013,04,04,05,21,9.60
2013,04,04,05,22,9.60
2013,04,04,05,23,9.60
2013,04,04,05,24,9.60
2013,04,04,05,25,9.60
2013,04,04,05,26,9.60
2013,04,04,05,27,9.60
2013,04,04,05,28,9.60
2013,04,04,05,29,9.60
2013,04,04,05,30,9.60
2013,04,04,05,31,9.60
2013,04,04,05,32,9.60
2013,04,04,05,33,9.60
2013,04,04,05,34,9.60
2013,04,04,05,35,9.60
2013,04,04,05,36,9.60
2013,04,04,05,37,9.60
2013,04,04,05,38,9.60
2013,04,04,05,39,9.60
2013,04,04,05,40,9.60
2013,04,04,05,41,9.60
2013,04,04,05,42,9.70
2013,04,04,05,43,9.70
2013,04,04,05,44,9.70
2013,04,04,05,45,9.70
2013,04,04,05,46,9.70
2013,04,04,05,47,9.80
2013,04,04,05,48,9.80
2013,04,04,05,49,9.80
2013,04,04,05,50,9.80
2013,04,04,05,51,9.90
2013,04,04,05,52,9.90
2013,04,04,05,53,9.90
2013,04,04,05,54,9.90
2013,04,04,05,55,9.90
2013,04,04,05,56,10.00
2013,04,04,05,57,10.00
2013,04,04,05,58,10.00
2013,04,04,05,59,10.00
2013,04,04,06,00,10.00
2013,04,04,06,01,10.10
2013,04,04,06,02,10.10
2013,04,04,06,03,10.10
2013,04,04,06,04,10.10
2013,04,04,06,05,10.10
2013,04,04,06,06,10.10
2013,04,04,06,07,10.10
2013,04,04,06,08,10.10
2013,04,04,06,09,10.10
2013,04,04,06,10,10.20
2013,04,04,06,11,10.20
2013,04,04,06,12,10.20
2013,04,04,06,13,10.20
2013,04,04,06,14,10.20
2013,04,04,06,15,10.20
2013,04,04,06,16,10.20
2013,04,04,06,17,10.20
2013,04,04,06,18,10.20
2013,04,04,06,19,10.20
2013,04,04,06,20,10.20
2013,04,04,06,21,10.10
2013,04,04,06,22,10.10
2013,04,04,06,23,10.10
2013,04,04,06,24,10.10
2013,04,04,06,25,10.10
2013,04,04,06,26,10.10
2013,04,04,06,27,10.10
2013,04,04,06,28,10.10
2013,04,04,06,29,10.10
2013,04,04,06,30,10.10
2013,04,04,06,31,10.10
2013,04,04,06,32,10.10
2013,04,04,06,33,10.10
2013,04,04,06,34,10.10
2013,04,04,06,35,10.10
2013,04,04,06,36,10.10
2013,04,04,06,37,10.10
2013,04,04,06,38,10.10
2013,04,04,06,39,10.10
2013,04,04,06,40,10.10
2013,04,04,06,41,10.10
2013,04,04,06,42,10.10
2013,04,04,06,43,10.10
2013,04,04,06,44,10.10
2013,04,04,06,45,10.10
2013,04,04,06,46,10.10
2013,04,04,06,47,10.00
2013,04,04,06,48,10.00
2013,04,04,06,49,10.00
2013,04,04,06,50,10.00
2013,04,04,06,51,10.00
2013,04,04,06,52,10.00
2013,04,04,06,53,10.00
2013,04,04,06,54,10.00
2013,04,04,06,55,10.00
2013,04,04,06,56,10.00
2013,04,04,06,57,9.90
2013,04,04,06,58,9.90
2013,04,04,06,59,9.90
2013,04,04,07,00,9.90
2013,04,04,07,01,9.90
2013,04,04,07,02,9.90
2013,04,04,07,03,9.90
2013,04,04,07,04,9.90
2013,04,04,07,05,9.90
2013,04,04,07,06,9.90
2013,04,04,07,07,9.90
2013,04,04,07,08,9.90
2013,04,04,07,09,9.90
2013,04,04,07,10,9.90
2013,04,04,07,11,9.90
2013,04,04,07,12,9.90
2013,04,04,07,13,9.90
2013,04,04,07,14,9.90
2013,04,04,07,15,9.90
2013,04,04,07,16,9.90
2013,04,04,07,17,9.90
2013,04,04,07,18,9.90
2013,04,04,07,19,9.90
2013,04,04,07,20,9.90
2013,04,04,07,21,9.90
2013,04,04,07,22,10.00
2013,04,04,07,23,10.00
2013,04,04,07,24,10.00
2013,04,04,07,25,10.00
2013,04,04,07,26,10.10
2013,04,04,07,27,10.10
2013,04,04,07,28,10.10
2013,04,04,07,29,10.10
2013,04,04,07,30,10.10
2013,04,04,07,31,10.10
2013,04,04,07,32,10.10
2013,04,04,07,33,10.10
2013,04,04,07,34,10.00
2013,04,04,07,35,10.00
2013,04,04,07,36,10.00
2013,04,04,07,37,10.00
2013,04,04,07,38,10.00
2013,04,04,07,39,9.90
2013,04,04,07,40,9.90
2013,04,04,07,41,9.90
2013,04,04,07,42,9.90
2013,04,04,07,43,9.90
2013,04,04,07,44,9.80
2013,04,04,07,45,9.80
2013,04,04,07,46,9.80
2013,04,04,07,47,9.80
2013,04,04,07,48,9.80
2013,04,04,07,49,9.80
2013,04,04,07,50,9.80
2013,04,04,07,51,9.80
2013,04,04,07,52,9.70
2013,04,04,07,53,9.70
2013,04,04,07,54,9.70
2013,04,04,07,55,9.70
2013,04,04,07,56,9.70
2013,04,04,07,57,9.70
2013,04,04,07,58,9.70
2013,04,04,07,59,9.70
2013,04,04,08,00,9.80
2013,04,04,08,01,9.80
2013,04,04,08,02,9.80
2013,04,04,08,03,9.80
2013,04,04,08,04,9.80
2013,04,04,08,05,9.80
2013,04,04,08,06,9.90
2013,04,04,08,07,9.90
2013,04,04,08,08,9.90
2013,04,04,08,09,9.90
2013,04,04,08,10,10.00
2013,04,04,08,11,10.00
2013,04,04,08,12,10.00
2013,04,04,08,13,10.10
2013,04,04,08,14,10.10
2013,04,04,08,15,10.10
2013,04,04,08,16,10.10
2013,04,04,08,17,10.10
2013,04,04,08,18,10.10
2013,04,04,08,19,10.10
2013,04,04,08,20,10.10
2013,04,04,08,21,10.00
2013,04,04,08,22,10.00
2013,04,04,08,23,10.00
2013,04,04,08,24,10.00
2013,04,04,08,25,10.00
2013,04,04,08,26,10.10
2013,04,04,08,27,10.10
2013,04,04,08,28,10.10
2013,04,04,08,29,10.10
2013,04,04,08,30,10.10
2013,04,04,08,31,10.20
2013,04,04,08,32,10.20
2013,04,04,08,33,10.20
2013,04,04,08,34,10.20
2013,04,04,08,35,10.20
2013,04,04,08,36,10.20
2013,04,04,08,37,10.30
2013,04,04,08,38,10.30
2013,04,04,08,39,10.30
2013,04,04,08,40,10.30
2013,04,04,08,41,10.30
2013,04,04,08,42,10.30
2013,04,04,08,43,10.30
2013,04,04,08,44,10.30
2013,04,04,08,45,10.30
2013,04,04,08,46,10.30
2013,04,04,08,47,10.30
2013,04,04,08,48,10.30
2013,04,04,08,49,10.30
2013,04,04,08,50,10.30
2013,04,04,08,51,10.30
2013,04,04,08,52,10.30
2013,04,04,08,53,10.30
2013,04,04,08,54,10.30
2013,04,04,08,55,10.30
2013,04,04,08,56,10.30
2013,04,04,08,57,10.20
2013,04,04,08,58,10.20
2013,04,04,08,59,10.20
2013,04,04,09,00,10.20
2013,04,04,09,01,10.20
2013,04,04,09,02,10.20
2013,04,04,09,03,10.20
2013,04,04,09,04,10.20
2013,04,04,09,05,10.20
2013,04,04,09,06,10.20
2013,04,04,09,07,10.20
2013,04,04,09,08,10.20
2013,04,04,09,09,10.20
2013,04,04,09,10,10.20
2013,04,04,09,11,10.20
2013,04,04,09,12,10.20
2013,04,04,09,13,10.30
2013,04,04,09,14,10.30
2013,04,04,09,15,10.30
2013,04,04,09,16,10.30
2013,04,04,09,17,10.30
2013,04,04,09,18,10.30
2013,04,04,09,19,10.30
2013,04,04,09,20,10.30
2013,04,04,09,21,10.30
2013,04,04,09,22,10.30
2013,04,04,09,23,10.30
2013,04,04,09,24,10.30
2013,04,04,09,25,10.30
2013,04,04,09,26,10.20
2013,04,04,09,27,10.20
2013,04,04,09,28,10.20
2013,04,04,09,29,10.20
2013,04,04,09,30,10.20
2013,04,04,09,31,10.20
2013,04,04,09,32,10.20
2013,04,04,09,33,10.20
2013,04,04,09,34,10.20
2013,04,04,09,35,10.20
2013,04,04,09,36,10.20
2013,04,04,09,37,10.20
2013,04,04,09,38,10.20
2013,04,04,09,39,10.20
2013,04,04,09,40,10.20
2013,04,04,09,41,10.20
2013,04,04,09,42,10.10
2013,04,04,09,43,10.10
2013,04,04,09,44,10.10
2013,04,04,09,45,10.10
2013,04,04,09,46,10.10
2013,04,04,09,47,10.10
2013,04,04,09,48,10.10
2013,04,04,09,49,10.10
2013,04,04,09,50,10.10
2013,04,04,09,51,10.10
2013,04,04,09,52,10.10
2013,04,04,09,53,10.10
2013,04,04,09,54,10.10
2013,04,04,09,55,10.10
2013,04,04,09,56,10.10
2013,04,04,09,57,10.10
2013,04,04,09,58,10.20
2013,04,04,09,59,10.20
2013,04,04,10,00,10.20
2013,04,04,10,01,10.20
2013,04,04,10,02,10.20
2013,04,04,10,03,10.20
2013,04,04,10,04,10.20
2013,04,04,10,05,10.20
2013,04,04,10,06,10.20
2013,04,04,10,07,10.20
2013,04,04,10,08,10.20
2013,04,04,10,09,10.20
2013,04,04,10,10,10.20
2013,04,04,10,11,10.20
2013,04,04,10,12,10.20
2013,04,04,10,13,10.20
2013,04,04,10,14,10.20
2013,04,04,10,15,10.20
2013,04,04,10,16,10.20
2013,04,04,10,17,10.20
2013,04,04,10,18,10.20
2013,04,04,10,19,10.20
2013,04,04,10,20,10.20
2013,04,04,10,21,10.20
2013,04,04,10,22,10.20
2013,04,04,10,23,10.20
2013,04,04,10,24,10.20
2013,04,04,10,25,10.20
2013,04,04,10,26,10.20
2013,04,04,10,27,10.20
2013,04,04,10,28,10.10
2013,04,04,10,29,10.10
2013,04,04,10,30,10.10
2013,04,04,10,31,10.10
2013,04,04,10,32,10.10
2013,04,04,10,33,10.10
2013,04,04,10,34,10.10
2013,04,04,10,35,10.10
2013,04,04,10,36,10.10
2013,04,04,10,37,10.00
2013,04,04,10,38,10.00
2013,04,04,10,39,10.00
2013,04,04,10,40,10.00
2013,04,04,10,41,10.00
2013,04,04,10,42,10.00
2013,04,04,10,43,10.00
2013,04,04,10,44,10.00
2013,04,04,10,45,10.00
2013,04,04,10,46,9.90
2013,04,04,10,47,9.90
2013,04,04,10,48,9.90
2013,04,04,10,49,9.90
2013,04,04,10,50,9.90
2013,04,04,10,51,9.90
2013,04,04,10,52,9.90
2013,04,04,10,53,9.90
2013,04,04,10,54,9.90
2013,04,04,10,55,9.90
2013,04,04,10,56,9.90
2013,04,04,10,57,9.80
2013,04,04,10,58,9.80
2013,04,04,10,59,9.80
2013,04,04,11,00,9.80
2013,04,04,11,01,9.80
2013,04,04,11,02,9.80
2013,04,04,11,03,9.80
2013,04,04,11,04,9.80
2013,04,04,11,05,9.80
2013,04,04,11,06,9.80
2013,04,04,11,07,9.80
2013,04,04,11,08,9.80
2013,04,04,11,09,9.80
2013,04,04,11,10,9.80
2013,04,04,11,11,9.80
2013,04,04,11,12,9.80
2013,04,04,11,13,9.80
2013,04,04,11,14,9.80
2013,04,04,11,15,9.80
2013,04,04,11,16,9.80
2013,04,04,11,17,9.80
2013,04,04,11,18,9.90
2013,04,04,11,19,9.90
2013,04,04,11,20,9.90
2013,04,04,11,21,9.90
2013,04,04,11,22,9.90
2013,04,04,11,23,9.90
2013,04,04,11,24,9.80
2013,04,04,11,25,9.80
2013,04,04,11,26,9.80
2013,04,04,11,27,9.80
2013,04,04,11,28,9.80
2013,04,04,11,29,9.80
2013,04,04,11,30,9.80
2013,04,04,11,31,9.80
2013,04,04,11,32,9.80
2013,04,04,11,33,9.80
2013,04,04,11,34,9.80
2013,04,04,11,35,9.80
2013,04,04,11,36,9.80
2013,04,04,11,37,9.80
2013,04,04,11,38,9.80
2013,04,04,11,39,9.80
2013,04,04,11,40,9.80
2013,04,04,11,41,9.80
2013,04,04,11,42,9.80
2013,04,04,11,43,9.80
2013,04,04,11,44,9.80
2013,04,04,11,45,9.90
2013,04,04,11,46,9.90
2013,04,04,11,47,9.90
2013,04,04,11,48,9.90
2013,04,04,11,49,9.90
2013,04,04,11,50,9.90
2013,04,04,11,51,9.90
2013,04,04,11,52,9.90
2013,04,04,11,53,9.90
2013,04,04,11,54,9.90
2013,04,04,11,55,9.90
2013,04,04,11,56,10.00
2013,04,04,11,57,10.00
2013,04,04,11,58,10.00
2013,04,04,11,59,10.00
2013,04,04,12,00,10.00
2013,04,04,12,01,10.00
2013,04,04,12,02,10.00
2013,04,04,12,03,10.00
2013,04,04,12,04,10.00
2013,04,04,12,05,10.10
2013,04,04,12,06,10.00
2013,04,04,12,07,10.00
2013,04,04,12,08,10.00
2013,04,04,12,09,10.00
2013,04,04,12,10,10.00
2013,04,04,12,11,10.00
2013,04,04,12,12,10.00
2013,04,04,12,13,10.00
2013,04,04,12,14,10.10
2013,04,04,12,15,10.10
2013,04,04,12,16,10.10
2013,04,04,12,17,10.10
2013,04,04,12,18,10.10
2013,04,04,12,19,10.10
2013,04,04,12,20,10.10
2013,04,04,12,21,10.10
2013,04,04,12,22,10.10
2013,04,04,12,23,10.00
2013,04,04,12,24,10.00
2013,04,04,12,25,10.00
2013,04,04,12,26,10.00
2013,04,04,12,27,10.00
2013,04,04,12,28,10.00
2013,04,04,12,29,9.90
2013,04,04,12,30,9.90
2013,04,04,12,31,10.00
2013,04,04,12,32,9.90
2013,04,04,12,33,10.00
2013,04,04,12,34,10.00
2013,04,04,12,35,10.00
2013,04,04,12,36,10.00
2013,04,04,12,37,10.00
2013,04,04,12,38,10.00
2013,04,04,12,39,10.00
2013,04,04,12,40,10.00
2013,04,04,12,41,10.00
2013,04,04,12,42,10.00
2013,04,04,12,43,10.00
2013,04,04,12,44,10.00
2013,04,04,12,45,9.90
2013,04,04,12,46,9.90
2013,04,04,12,47,9.90
2013,04,04,12,48,9.90
2013,04,04,12,49,9.80
2013,04,04,12,50,9.80
2013,04,04,12,51,9.80
2013,04,04,12,52,9.80
2013,04,04,12,53,9.90
2013,04,04,12,54,9.80
2013,04,04,12,55,9.80
2013,04,04,12,56,9.80
2013,04,04,12,57,9.80
2013,04,04,12,58,9.70
2013,04,04,12,59,9.70
2013,04,04,13,00,9.80
2013,04,04,13,01,9.80
2013,04,04,13,02,9.80
2013,04,04,13,03,9.80
2013,04,04,13,04,9.80
2013,04,04,13,05,9.80
2013,04,04,13,06,9.80
2013,04,04,13,07,9.80
2013,04,04,13,08,9.80
2013,04,04,13,09,9.80
2013,04,04,13,10,9.80
2013,04,04,13,11,9.80
2013,04,04,13,12,9.80
2013,04,04,13,13,9.80
2013,04,04,13,14,9.80
2013,04,04,13,15,9.80
2013,04,04,13,16,9.80
2013,04,04,13,17,9.80
2013,04,04,13,18,9.80
2013,04,04,13,19,9.80
2013,04,04,13,20,9.80
2013,04,04,13,21,9.80
2013,04,04,13,22,9.80
2013,04,04,13,23,9.80
2013,04,04,13,24,9.80
2013,04,04,13,25,9.80
2013,04,04,13,26,9.80
2013,04,04,13,27,9.90
2013,04,04,13,28,9.90
2013,04,04,13,29,9.90
2013,04,04,13,30,9.90
2013,04,04,13,31,9.90
2013,04,04,13,32,9.90
2013,04,04,13,33,9.90
2013,04,04,13,34,9.90
2013,04,04,13,35,9.90
2013,04,04,13,36,9.90
2013,04,04,13,37,9.90
2013,04,04,13,38,9.90
2013,04,04,13,39,9.90
2013,04,04,13,40,9.90
2013,04,04,13,41,9.90
2013,04,04,13,42,9.90
2013,04,04,13,43,9.90
2013,04,04,13,44,9.90
2013,04,04,13,45,9.90
2013,04,04,13,46,9.90
2013,04,04,13,47,9.90
2013,04,04,13,48,10.00
2013,04,04,13,49,10.00
2013,04,04,13,50,9.90
2013,04,04,13,51,9.90
2013,04,04,13,52,9.90
2013,04,04,13,53,9.90
2013,04,04,13,54,9.90
2013,04,04,13,55,9.90
2013,04,04,13,56,9.90
2013,04,04,13,57,9.90
2013,04,04,13,58,9.90
2013,04,04,13,59,10.00
2013,04,04,14,00,9.90
2013,04,04,14,01,9.90
2013,04,04,14,02,9.90
2013,04,04,14,03,9.90
2013,04,04,14,04,9.90
2013,04,04,14,05,9.90
2013,04,04,14,06,9.90
2013,04,04,14,07,9.90
2013,04,04,14,08,9.90
2013,04,04,14,09,9.90
2013,04,04,14,10,9.90
2013,04,04,14,11,9.90
2013,04,04,14,12,9.90
2013,04,04,14,13,9.90
2013,04,04,14,14,9.90
2013,04,04,14,15,9.90
2013,04,04,14,16,9.90
2013,04,04,14,17,9.90
2013,04,04,14,18,9.90
2013,04,04,14,19,9.90
2013,04,04,14,20,9.80
2013,04,04,14,21,9.80
2013,04,04,14,22,9.80
2013,04,04,14,23,9.80
2013,04,04,14,24,9.80
2013,04,04,14,25,9.80
2013,04,04,14,26,9.80
2013,04,04,14,27,9.80
2013,04,04,14,28,9.80
2013,04,04,14,29,9.80
2013,04,04,14,30,9.80
2013,04,04,14,31,9.80
2013,04,04,14,32,9.80
2013,04,04,14,33,9.80
2013,04,04,14,34,9.80
2013,04,04,14,35,9.80
2013,04,04,14,36,9.80
2013,04,04,14,37,9.80
2013,04,04,14,38,9.80
2013,04,04,14,39,9.80
2013,04,04,14,40,9.70
2013,04,04,14,41,9.70
2013,04,04,14,42,9.70
2013,04,04,14,43,9.70
2013,04,04,14,44,9.70
2013,04,04,14,45,9.70
2013,04,04,14,46,9.70
2013,04,04,14,47,9.70
2013,04,04,14,48,9.70
2013,04,04,14,49,9.70
2013,04,04,14,50,9.70
2013,04,04,14,51,9.70
2013,04,04,14,52,9.70
2013,04,04,14,53,9.70
2013,04,04,14,54,9.70
2013,04,04,14,55,9.70
2013,04,04,14,56,9.70
2013,04,04,14,57,9.70
2013,04,04,14,58,9.70
2013,04,04,14,59,9.70
2013,04,04,15,00,9.70
2013,04,04,15,01,9.70
2013,04,04,15,02,9.70
2013,04,04,15,03,9.70
2013,04,04,15,04,9.70
2013,04,04,15,05,9.70
2013,04,04,15,06,9.70
2013,04,04,15,07,9.70
2013,04,04,15,08,9.70
2013,04,04,15,09,9.70
2013,04,04,15,10,9.70
2013,04,04,15,11,9.70
2013,04,04,15,12,9.70
2013,04,04,15,13,9.70
2013,04,04,15,14,9.70
2013,04,04,15,15,9.70
2013,04,04,15,16,9.70
2013,04,04,15,17,9.70
2013,04,04,15,18,9.70
2013,04,04,15,19,9.70
2013,04,04,15,20,9.70
2013,04,04,15,21,9.70
2013,04,04,15,22,9.70
2013,04,04,15,23,9.70
2013,04,04,15,24,9.70
2013,04,04,15,25,9.70
2013,04,04,15,26,9.70
2013,04,04,15,27,9.70
2013,04,04,15,28,9.70
2013,04,04,15,29,9.60
2013,04,04,15,30,9.60
2013,04,04,15,31,9.60
2013,04,04,15,32,9.60
2013,04,04,15,33,9.60
2013,04,04,15,34,9.60
2013,04,04,15,35,9.60
2013,04,04,15,36,9.60
2013,04,04,15,37,9.60
2013,04,04,15,38,9.60
2013,04,04,15,39,9.60
2013,04,04,15,40,9.60
2013,04,04,15,41,9.60
2013,04,04,15,42,9.60
2013,04,04,15,43,9.60
2013,04,04,15,44,9.60
2013,04,04,15,45,9.60
2013,04,04,15,46,9.60
2013,04,04,15,47,9.60
2013,04,04,15,48,9.60
2013,04,04,15,49,9.60
2013,04,04,15,50,9.60
2013,04,04,15,51,9.60
2013,04,04,15,52,9.60
2013,04,04,15,53,9.60
2013,04,04,15,54,9.60
2013,04,04,15,55,9.60
2013,04,04,15,56,9.60
2013,04,04,15,57,9.60
2013,04,04,15,58,9.60
2013,04,04,15,59,9.60
2013,04,04,16,00,9.60
2013,04,04,16,01,9.60
2013,04,04,16,02,9.60
2013,04,04,16,03,9.60
2013,04,04,16,04,9.50
2013,04,04,16,05,9.50
2013,04,04,16,06,9.50
2013,04,04,16,07,9.50
2013,04,04,16,08,9.50
2013,04,04,16,09,9.50
2013,04,04,16,10,9.50
2013,04,04,16,11,9.50
2013,04,04,16,12,9.50
2013,04,04,16,13,9.50
2013,04,04,16,14,9.40
2013,04,04,16,15,9.40
2013,04,04,16,16,9.50
2013,04,04,16,17,9.50
2013,04,04,16,18,9.50
2013,04,04,16,19,9.50
2013,04,04,16,20,9.50
2013,04,04,16,21,9.60
2013,04,04,16,22,9.60
2013,04,04,16,23,9.60
2013,04,04,16,24,9.60
2013,04,04,16,25,9.60
2013,04,04,16,26,9.60
2013,04,04,16,27,9.60
2013,04,04,16,28,9.60
2013,04,04,16,29,9.60
2013,04,04,16,30,9.60
2013,04,04,16,31,9.60
2013,04,04,16,32,9.60
2013,04,04,16,33,9.60
2013,04,04,16,34,9.50
2013,04,04,16,35,9.50
2013,04,04,16,36,9.50
2013,04,04,16,37,9.50
2013,04,04,16,38,9.50
2013,04,04,16,39,9.50
2013,04,04,16,40,9.50
2013,04,04,16,41,9.40
2013,04,04,16,42,9.40
2013,04,04,16,43,9.40
2013,04,04,16,44,9.40
2013,04,04,16,45,9.40
2013,04,04,16,46,9.40
2013,04,04,16,47,9.50
2013,04,04,16,48,9.40
2013,04,04,16,49,9.50
2013,04,04,16,50,9.50
2013,04,04,16,51,9.50
2013,04,04,16,52,9.50
2013,04,04,16,53,9.40
2013,04,04,16,54,9.40
2013,04,04,16,55,9.40
2013,04,04,16,56,9.40
2013,04,04,16,57,9.40
2013,04,04,16,58,9.40
2013,04,04,16,59,9.40
2013,04,04,17,00,9.40
2013,04,04,17,01,9.40
2013,04,04,17,02,9.40
2013,04,04,17,03,9.40
2013,04,04,17,04,9.40
2013,04,04,17,05,9.40
2013,04,04,17,06,9.40
2013,04,04,17,07,9.40
2013,04,04,17,08,9.40
2013,04,04,17,09,9.40
2013,04,04,17,10,9.40
2013,04,04,17,11,9.40
2013,04,04,17,12,9.40
2013,04,04,17,13,9.40
2013,04,04,17,14,9.40
2013,04,04,17,15,9.40
2013,04,04,17,16,9.40
2013,04,04,17,17,9.30
2013,04,04,17,18,9.30
2013,04,04,17,19,9.30
2013,04,04,17,20,9.30
2013,04,04,17,21,9.30
2013,04,04,17,22,9.30
2013,04,04,17,23,9.30
2013,04,04,17,24,9.30
2013,04,04,17,25,9.30
2013,04,04,17,26,9.30
2013,04,04,17,27,9.30
2013,04,04,17,28,9.30
2013,04,04,17,29,9.30
2013,04,04,17,30,9.30
2013,04,04,17,31,9.30
2013,04,04,17,32,9.30
2013,04,04,17,33,9.30
2013,04,04,17,34,9.30
2013,04,04,17,35,9.30
2013,04,04,17,36,9.30
2013,04,04,17,37,9.20
2013,04,04,17,38,9.20
2013,04,04,17,39,9.20
2013,04,04,17,40,9.20
2013,04,04,17,41,9.20
2013,04,04,17,42,9.20
2013,04,04,17,43,9.20
2013,04,04,17,44,9.20
2013,04,04,17,45,9.20
2013,04,04,17,46,9.20